Location: Lafig�re
(44.4503°N, 4.0357°E)
Time: 20:14:39
(UTC+00:00)

BlueWalker 3 - Pass Details

Date: 11 December 2022
Orbit: 499 x 517 km, 53.2° (Epoch: 04 February)

Event Time Altitude Azimuth Distance (km) Brightness Sun altitude
Rises 16:33:04 0° 305° (NW) 2,632 6.0 -5.3°
Maximum altitude 16:39:11 54° 28° (NNE) 628 2.1 -6.3°
Drops below altitude 10° 16:43:00 10° 107° (ESE) 1,719 4.2 -6.9°
Sets 16:45:13 0° 112° (ESE) 2,598 5.2 -7.3°
Enters shadow 16:45:20 - 112° (ESE) 2,648 5.2 -7.3°
